Time,TemperatureF,DewpointF,PressureIn,WindDirection,WindDirectionDegrees,WindSpeedMPH,WindSpeedGustMPH,Humidity,HourlyPrecipIn,Conditions,Clouds,dailyrainin,SoftwareType,DateUTC
2013-05-31 00:02:00,60.1,48.3,29.86,South,180,2.2,-999.0,65,-99.99,,,0.00,Acu-Link.com,2013-05-31 07:02:00,
2013-05-31 00:17:00,59.5,48.1,29.86,West,270,1.1,-999.0,66,-99.99,,,0.00,Acu-Link.com,2013-05-31 07:17:00,
2013-05-31 00:32:00,58.3,48.2,29.87,East,90,1.7,-999.0,69,-99.99,,,0.00,Acu-Link.com,2013-05-31 07:32:00,
2013-05-31 00:48:00,57.9,48.2,29.87,ESE,112,0.0,-999.0,70,-99.99,,,0.00,Acu-Link.com,2013-05-31 07:48:00,
2013-05-31 01:03:00,57.4,48.1,29.87,NNW,337,0.0,-999.0,71,-99.99,,,0.00,Acu-Link.com,2013-05-31 08:03:00,
2013-05-31 01:19:00,57.2,47.9,29.87,SSE,157,0.0,-999.0,71,-99.99,,,0.00,Acu-Link.com,2013-05-31 08:19:00,
2013-05-31 01:34:00,57.0,48.1,29.87,ESE,112,2.7,-999.0,72,-99.99,,,0.00,Acu-Link.com,2013-05-31 08:34:00,
2013-05-31 01:49:00,56.5,47.9,29.87,WSW,247,0.0,-999.0,73,-99.99,,,0.00,Acu-Link.com,2013-05-31 08:49:00,
2013-05-31 02:04:00,55.6,48.5,29.87,East,90,0.0,-999.0,77,-99.99,,,0.00,Acu-Link.com,2013-05-31 09:04:00,
2013-05-31 02:19:00,54.9,47.8,29.87,SSE,157,0.0,-999.0,77,-99.99,,,0.00,Acu-Link.com,2013-05-31 09:19:00,
2013-05-31 02:35:00,54.1,47.7,29.87,ESE,112,0.0,-999.0,79,-99.99,,,0.00,Acu-Link.com,2013-05-31 09:35:00,
2013-05-31 02:50:00,54.3,48.3,29.87,SW,225,0.0,-999.0,80,-99.99,,,0.00,Acu-Link.com,2013-05-31 09:50:00,
2013-05-31 03:05:00,54.0,48.0,29.87,WSW,247,0.0,-999.0,80,-99.99,,,0.00,Acu-Link.com,2013-05-31 10:05:00,
2013-05-31 03:20:00,53.1,47.4,29.87,SSW,202,0.0,-999.0,81,-99.99,,,0.00,Acu-Link.com,2013-05-31 10:20:00,
2013-05-31 03:36:00,53.1,47.4,29.87,West,270,3.7,-999.0,81,-99.99,,,0.00,Acu-Link.com,2013-05-31 10:36:00,
2013-05-31 03:51:00,55.0,47.6,29.87,WNW,292,2.7,-999.0,76,-99.99,,,0.00,Acu-Link.com,2013-05-31 10:51:00,
2013-05-31 04:06:00,54.9,47.5,29.87,West,270,2.7,-999.0,76,-99.99,,,0.00,Acu-Link.com,2013-05-31 11:06:00,
2013-05-31 04:22:00,54.9,47.8,29.87,West,270,1.7,-999.0,77,-99.99,,,0.00,Acu-Link.com,2013-05-31 11:22:00,
2013-05-31 04:37:00,54.3,47.9,29.87,West,270,2.2,-999.0,79,-99.99,,,0.00,Acu-Link.com,2013-05-31 11:37:00,
2013-05-31 04:52:00,54.3,48.3,29.87,West,270,0.0,-999.0,80,-99.99,,,0.00,Acu-Link.com,2013-05-31 11:52:00,
2013-05-31 05:08:00,53.4,47.7,29.88,WSW,247,0.0,-999.0,81,-99.99,,,0.00,Acu-Link.com,2013-05-31 12:08:00,
2013-05-31 05:23:00,52.7,48.0,29.88,North,0,0.0,-999.0,84,-99.99,,,0.00,Acu-Link.com,2013-05-31 12:23:00,
2013-05-31 05:38:00,52.3,48.5,29.88,SSE,157,0.0,-999.0,87,-99.99,,,0.00,Acu-Link.com,2013-05-31 12:38:00,
2013-05-31 05:53:00,52.2,49.1,29.89,SSW,202,0.0,-999.0,89,-99.99,,,0.00,Acu-Link.com,2013-05-31 12:53:00,
2013-05-31 06:09:00,51.8,48.4,29.89,South,180,0.0,-999.0,88,-99.99,,,0.00,Acu-Link.com,2013-05-31 13:09:00,
2013-05-31 06:24:00,52.7,49.5,29.89,WSW,247,1.1,-999.0,89,-99.99,,,0.00,Acu-Link.com,2013-05-31 13:24:00,
2013-05-31 06:39:00,57.7,48.0,29.89,West,270,2.7,-999.0,70,-99.99,,,0.00,Acu-Link.com,2013-05-31 13:39:00,
2013-05-31 06:55:00,62.6,49.0,29.90,WNW,292,4.7,-999.0,61,-99.99,,,0.00,Acu-Link.com,2013-05-31 13:55:00,
2013-05-31 07:10:00,65.5,48.9,29.91,West,270,4.2,-999.0,55,-99.99,,,0.00,Acu-Link.com,2013-05-31 14:10:00,
2013-05-31 07:25:00,66.6,48.4,29.91,NW,315,3.2,-999.0,52,-99.99,,,0.00,Acu-Link.com,2013-05-31 14:25:00,
2013-05-31 07:40:00,67.8,48.5,29.91,NW,315,4.7,-999.0,50,-99.99,,,0.00,Acu-Link.com,2013-05-31 14:40:00,
2013-05-31 07:56:00,69.4,48.3,29.91,North,0,4.2,-999.0,47,-99.99,,,0.00,Acu-Link.com,2013-05-31 14:56:00,
2013-05-31 08:11:00,70.2,47.9,29.91,NNW,337,4.2,-999.0,45,-99.99,,,0.00,Acu-Link.com,2013-05-31 15:11:00,
2013-05-31 08:26:00,71.6,48.5,29.91,NNW,337,3.7,-999.0,44,-99.99,,,0.00,Acu-Link.com,2013-05-31 15:26:00,
2013-05-31 08:41:00,73.4,48.3,29.91,WNW,292,5.3,-999.0,41,-99.99,,,0.00,Acu-Link.com,2013-05-31 15:41:00,
2013-05-31 08:56:00,75.0,48.3,29.91,WNW,292,2.7,-999.0,39,-99.99,,,0.00,Acu-Link.com,2013-05-31 15:56:00,
2013-05-31 09:12:00,76.1,48.6,29.91,WNW,292,4.2,-999.0,38,-99.99,,,0.00,Acu-Link.com,2013-05-31 16:12:00,
2013-05-31 09:27:00,76.3,47.4,29.91,NW,315,8.9,-999.0,36,-99.99,,,0.00,Acu-Link.com,2013-05-31 16:27:00,
2013-05-31 09:42:00,77.2,47.4,29.91,North,0,6.3,-999.0,35,-99.99,,,0.00,Acu-Link.com,2013-05-31 16:42:00,
2013-05-31 09:57:00,77.7,45.5,29.90,NNW,337,4.7,-999.0,32,-99.99,,,0.00,Acu-Link.com,2013-05-31 16:57:00,
2013-05-31 10:12:00,78.6,47.1,29.90,NNW,337,7.8,-999.0,33,-99.99,,,0.00,Acu-Link.com,2013-05-31 17:12:00,
2013-05-31 10:27:00,80.2,45.9,29.90,ESE,112,3.2,-999.0,30,-99.99,,,0.00,Acu-Link.com,2013-05-31 17:27:00,
2013-05-31 10:42:00,80.8,46.4,29.89,NW,315,6.3,-999.0,30,-99.99,,,0.00,Acu-Link.com,2013-05-31 17:42:00,
2013-05-31 10:57:00,82.0,46.6,29.89,WNW,292,8.3,-999.0,29,-99.99,,,0.00,Acu-Link.com,2013-05-31 17:57:00,
2013-05-31 11:12:00,83.3,48.6,29.89,North,0,5.8,-999.0,30,-99.99,,,0.00,Acu-Link.com,2013-05-31 18:12:00,
2013-05-31 11:27:00,84.9,46.2,29.89,West,270,9.4,-999.0,26,-99.99,,,0.00,Acu-Link.com,2013-05-31 18:27:00,
2013-05-31 11:42:00,84.6,43.8,29.89,NNW,337,5.3,-999.0,24,-99.99,,,0.00,Acu-Link.com,2013-05-31 18:42:00,
2013-05-31 11:57:00,86.4,45.3,29.88,West,270,7.3,-999.0,24,-99.99,,,0.00,Acu-Link.com,2013-05-31 18:57:00,
2013-05-31 12:12:00,87.3,41.3,29.88,NW,315,7.8,-999.0,20,-99.99,,,0.00,Acu-Link.com,2013-05-31 19:12:00,
2013-05-31 12:28:00,87.4,41.4,29.87,WNW,292,6.8,-999.0,20,-99.99,,,0.00,Acu-Link.com,2013-05-31 19:28:00,
2013-05-31 12:43:00,89.2,42.9,29.87,WNW,292,9.9,-999.0,20,-99.99,,,0.00,Acu-Link.com,2013-05-31 19:43:00,
2013-05-31 12:58:00,89.4,43.0,29.86,NNW,337,5.8,-999.0,20,-99.99,,,0.00,Acu-Link.com,2013-05-31 19:58:00,
2013-05-31 13:13:00,89.4,41.7,29.86,NNW,337,8.3,-999.0,19,-99.99,,,0.00,Acu-Link.com,2013-05-31 20:13:00,
2013-05-31 13:28:00,90.5,41.2,29.86,NW,315,6.8,-999.0,18,-99.99,,,0.00,Acu-Link.com,2013-05-31 20:28:00,
2013-05-31 13:43:00,91.0,38.5,29.85,NNE,22,5.8,-999.0,16,-99.99,,,0.00,Acu-Link.com,2013-05-31 20:43:00,
2013-05-31 13:58:00,92.7,38.3,29.84,WSW,247,9.4,-999.0,15,-99.99,,,0.00,Acu-Link.com,2013-05-31 20:58:00,
2013-05-31 14:13:00,91.9,37.6,29.84,WSW,247,4.2,-999.0,15,-99.99,,,0.00,Acu-Link.com,2013-05-31 21:13:00,
2013-05-31 14:28:00,93.4,42.0,29.83,WNW,292,5.3,-999.0,17,-99.99,,,0.00,Acu-Link.com,2013-05-31 21:28:00,
2013-05-31 14:44:00,94.3,39.5,29.83,West,270,8.3,-999.0,15,-99.99,,,0.00,Acu-Link.com,2013-05-31 21:44:00,
2013-05-31 14:59:00,94.3,37.8,29.83,WNW,292,13.0,-999.0,14,-99.99,,,0.00,Acu-Link.com,2013-05-31 21:59:00,
2013-05-31 15:14:00,94.5,34.0,29.82,West,270,9.4,-999.0,12,-99.99,,,0.00,Acu-Link.com,2013-05-31 22:14:00,
2013-05-31 15:29:00,94.3,33.9,29.81,SW,225,5.3,-999.0,12,-99.99,,,0.00,Acu-Link.com,2013-05-31 22:29:00,
2013-05-31 15:44:00,95.2,32.4,29.80,NW,315,9.9,-999.0,11,-99.99,,,0.00,Acu-Link.com,2013-05-31 22:44:00,
2013-05-31 15:59:00,94.6,29.6,29.79,WNW,292,10.4,-999.0,10,-99.99,,,0.00,Acu-Link.com,2013-05-31 22:59:00,
2013-05-31 16:14:00,95.0,32.2,29.79,West,270,7.3,-999.0,11,-99.99,,,0.00,Acu-Link.com,2013-05-31 23:14:00,
2013-05-31 16:29:00,95.0,32.2,29.78,NW,315,9.4,-999.0,11,-99.99,,,0.00,Acu-Link.com,2013-05-31 23:29:00,
2013-05-31 16:44:00,94.1,31.5,29.78,NNW,337,6.3,-999.0,11,-99.99,,,0.00,Acu-Link.com,2013-05-31 23:44:00,
2013-05-31 17:00:00,94.3,31.7,29.77,West,270,4.7,-999.0,11,-99.99,,,0.00,Acu-Link.com,2013-06-01 00:00:00,
2013-05-31 17:15:00,94.6,34.1,29.77,West,270,7.3,-999.0,12,-99.99,,,0.00,Acu-Link.com,2013-06-01 00:15:00,
2013-05-31 17:30:00,94.5,36.0,29.77,WNW,292,5.8,-999.0,13,-99.99,,,0.00,Acu-Link.com,2013-06-01 00:30:00,
2013-05-31 17:45:00,94.6,34.1,29.77,WNW,292,5.8,-999.0,12,-99.99,,,0.00,Acu-Link.com,2013-06-01 00:45:00,
2013-05-31 18:01:00,94.6,31.9,29.76,NNE,22,3.7,-999.0,11,-99.99,,,0.00,Acu-Link.com,2013-06-01 01:01:00,
2013-05-31 18:16:00,96.3,33.2,29.76,West,270,11.4,-999.0,11,-99.99,,,0.00,Acu-Link.com,2013-06-01 01:16:00,
2013-05-31 18:31:00,95.7,32.8,29.76,West,270,4.7,-999.0,11,-99.99,,,0.00,Acu-Link.com,2013-06-01 01:31:00,
2013-05-31 18:46:00,95.9,32.9,29.76,NNW,337,5.3,-999.0,11,-99.99,,,0.00,Acu-Link.com,2013-06-01 01:46:00,
2013-05-31 19:01:00,96.3,33.2,29.76,West,270,6.8,-999.0,11,-99.99,,,0.00,Acu-Link.com,2013-06-01 02:01:00,
2013-05-31 19:16:00,94.6,34.1,29.76,WNW,292,1.7,-999.0,12,-99.99,,,0.00,Acu-Link.com,2013-06-01 02:16:00,
2013-05-31 19:31:00,94.6,34.1,29.76,NNE,22,2.2,-999.0,12,-99.99,,,0.00,Acu-Link.com,2013-06-01 02:31:00,
2013-05-31 19:46:00,92.8,36.6,29.76,WNW,292,1.7,-999.0,14,-99.99,,,0.00,Acu-Link.com,2013-06-01 02:46:00,
2013-05-31 20:02:00,90.0,40.8,29.76,West,270,0.0,-999.0,18,-99.99,,,0.00,Acu-Link.com,2013-06-01 03:02:00,
2013-05-31 20:17:00,85.5,44.6,29.76,ENE,67,0.0,-999.0,24,-99.99,,,0.00,Acu-Link.com,2013-06-01 03:17:00,
2013-05-31 20:32:00,81.9,48.3,29.76,ESE,112,0.0,-999.0,31,-99.99,,,0.00,Acu-Link.com,2013-06-01 03:32:00,
2013-05-31 20:47:00,78.6,50.1,29.76,South,180,0.0,-999.0,37,-99.99,,,0.00,Acu-Link.com,2013-06-01 03:47:00,
2013-05-31 21:02:00,76.6,51.1,29.76,NE,45,0.0,-999.0,41,-99.99,,,0.00,Acu-Link.com,2013-06-01 04:02:00,
2013-05-31 21:17:00,74.7,51.9,29.76,South,180,0.0,-999.0,45,-99.99,,,0.00,Acu-Link.com,2013-06-01 04:17:00,
2013-05-31 21:33:00,73.8,51.1,29.77,West,270,0.0,-999.0,45,-99.99,,,0.00,Acu-Link.com,2013-06-01 04:33:00,
2013-05-31 21:48:00,72.9,50.3,29.77,SW,225,0.0,-999.0,45,-99.99,,,0.00,Acu-Link.com,2013-06-01 04:48:00,
2013-05-31 22:03:00,71.8,50.5,29.77,SSE,157,4.2,-999.0,47,-99.99,,,0.00,Acu-Link.com,2013-06-01 05:03:00,
2013-05-31 22:18:00,70.9,50.2,29.78,South,180,2.2,-999.0,48,-99.99,,,0.00,Acu-Link.com,2013-06-01 05:18:00,
2013-05-31 22:34:00,69.8,50.3,29.78,West,270,3.2,-999.0,50,-99.99,,,0.00,Acu-Link.com,2013-06-01 05:34:00,
2013-05-31 22:49:00,69.1,50.2,29.78,South,180,1.1,-999.0,51,-99.99,,,0.00,Acu-Link.com,2013-06-01 05:49:00,
2013-05-31 23:04:00,68.2,50.4,29.79,West,270,4.2,-999.0,53,-99.99,,,0.00,Acu-Link.com,2013-06-01 06:04:00,
2013-05-31 23:19:00,67.5,50.8,29.79,SW,225,0.0,-999.0,55,-99.99,,,0.00,Acu-Link.com,2013-06-01 06:19:00,
2013-05-31 23:35:00,66.4,50.7,29.79,South,180,0.0,-999.0,57,-99.99,,,0.00,Acu-Link.com,2013-06-01 06:35:00,
2013-05-31 23:51:00,65.8,51.1,29.79,West,270,0.0,-999.0,59,-99.99,,,0.00,Acu-Link.com,2013-06-01 06:51:00,